North Bend, OR

6:34 AM PDT on March 24, 2017 (GMT -0700)
North Bend Municipal

Weather History for KOTH - September, 2013

Change the Weather History Date:

Friday, September 6, 2013

  Actual Average Record
Temperature  
Mean Temperature 65 °F 58 °F  
Max Temperature 70 °F 66 °F 88 °F (1981)
Min Temperature 59 °F 51 °F 39 °F (1910)
Degree Days  
Heating Degree Days 0 7  
Month to date heating degree days 4 37  
Since 1 July heating degree days 171 416  
Cooling Degree Days 0 0  
Month to date cooling degree days 1 0  
Year to date cooling degree days 13 1  
Growing Degree Days 14 (Base 50)    
Moisture  
Dew Point 61 °F    
Average Humidity 89    
Maximum Humidity 100    
Minimum Humidity 70    
Precipitation  
Precipitation 0.00 in 0.04 in 1.06 in (1931)
Month to date precipitation 0.46 0.22  
Year to date precipitation 18.39 37.46  
Sea Level Pressure  
Sea Level Pressure 30.16 in    
Wind  
Wind Speed 7 mph (NNE)    
Max Wind Speed 16 mph    
Max Gust Speed 22 mph    
Visibility 10 miles    
Events      
T = Trace of Precipitation, MM = Missing Value Source: NWS Daily Summary

Daily Weather History Graph

Daily Weather History Graph

Search for Another Location

Airport or City:

Trip Planner

Search our weather history database for the weather conditions in past years. The results will help you decide how hot, cold, wet, or windy it might be!

Date:

Astronomy

Sep. 06, 2013 Rise Set
Actual Time 6:46 AM PDT 7:42 PM PDT
Civil Twilight 6:17 AM PDT 8:11 PM PDT
Nautical Twilight 5:43 AM PDT 8:46 PM PDT
Astronomical Twilight 5:06 AM PDT 9:22 PM PDT
Moon 8:09 AM PDT (9/6) 8:05 PM PDT (9/6)
Length of Visible Light 13h 54m
Length of Day
12h 55m
New Moon, 2% of the Moon is Illuminated
Sep 6
New Moon
Sep 12
First Quarter
Sep 19
Full
Sep 26
Last Quarter
Oct 4
New

Hourly Weather History & Observations

Time (PDT) Temp. Dew Point Humidity Pressure Visibility Wind Dir Wind Speed Gust Speed Precip Events Conditions
12:15 AM 60.8 °F 60.8 °F 100% 30.16 in 10.0 mi Calm Calm - N/A   Overcast
12:35 AM 60.8 °F 60.8 °F 100% 30.16 in 10.0 mi Calm Calm - N/A   Overcast
12:55 AM 60.8 °F 60.8 °F 100% 30.16 in 10.0 mi SE 3.5 mph - N/A   Overcast
1:15 AM 60.8 °F 60.8 °F 100% 30.16 in 10.0 mi SSE 4.6 mph - N/A   Overcast
1:35 AM 60.8 °F 60.8 °F 100% 30.16 in 10.0 mi South 3.5 mph - N/A   Overcast
1:55 AM 60.8 °F 60.8 °F 100% 30.16 in 10.0 mi South 4.6 mph - N/A   Overcast
2:15 AM 60.8 °F 60.8 °F 100% 30.16 in 10.0 mi SSE 4.6 mph - N/A   Overcast
2:35 AM 60.8 °F 60.8 °F 100% 30.15 in 10.0 mi SSE 4.6 mph - N/A   Overcast
2:55 AM 60.8 °F 60.8 °F 100% 30.16 in 10.0 mi ESE 3.5 mph - N/A   Overcast
3:15 AM 60.8 °F 60.8 °F 100% 30.17 in 10.0 mi SSE 6.9 mph - N/A   Overcast
3:35 AM 60.8 °F 60.8 °F 100% 30.16 in 10.0 mi South 6.9 mph - N/A   Overcast
3:55 AM 60.8 °F 60.8 °F 100% 30.17 in 10.0 mi SSE 4.6 mph - N/A   Overcast
4:15 AM 60.8 °F 60.8 °F 100% 30.17 in 10.0 mi Calm Calm - N/A   Overcast
4:35 AM 60.8 °F 60.8 °F 100% 30.16 in 10.0 mi Calm Calm - N/A   Overcast
4:55 AM 60.8 °F 60.8 °F 100% 30.17 in 10.0 mi SE 5.8 mph - N/A   Overcast
5:15 AM 60.8 °F 60.8 °F 100% 30.17 in 10.0 mi Calm Calm - N/A   Overcast
5:35 AM 60.8 °F 60.8 °F 100% 30.17 in 10.0 mi Calm Calm - N/A   Overcast
5:55 AM 60.8 °F 60.8 °F 100% 30.17 in 10.0 mi SSE 3.5 mph - N/A   Overcast
6:15 AM 60.8 °F 60.8 °F 100% 30.17 in 10.0 mi SSE 3.5 mph - N/A   Overcast
6:35 AM 60.8 °F 60.8 °F 100% 30.18 in 10.0 mi SE 4.6 mph - N/A   Overcast
6:55 AM 60.8 °F 59.0 °F 94% 30.18 in 10.0 mi SSE 3.5 mph - N/A   Mostly Cloudy
7:15 AM 60.8 °F 60.8 °F 100% 30.19 in 10.0 mi SSE 4.6 mph - N/A   Mostly Cloudy
7:35 AM 62.6 °F 62.6 °F 100% 30.19 in 10.0 mi SE 4.6 mph - N/A   Mostly Cloudy
7:55 AM 62.6 °F 60.8 °F 94% 30.20 in 10.0 mi SE 4.6 mph - N/A   Mostly Cloudy
8:15 AM 62.6 °F 60.8 °F 94% 30.20 in 10.0 mi SE 3.5 mph - N/A   Mostly Cloudy
8:35 AM 62.6 °F 60.8 °F 94% 30.19 in 10.0 mi SE 5.8 mph - N/A   Mostly Cloudy
8:55 AM 62.6 °F 62.6 °F 100% 30.20 in 10.0 mi SSE 4.6 mph - N/A   Mostly Cloudy
9:15 AM 62.6 °F 62.6 °F 100% 30.20 in 10.0 mi SSE 3.5 mph - N/A   Overcast
9:35 AM 64.4 °F 62.6 °F 94% 30.20 in 10.0 mi Calm Calm - N/A   Overcast
9:55 AM 64.4 °F 62.6 °F 94% 30.20 in 10.0 mi ESE 3.5 mph - N/A   Overcast
10:15 AM 64.4 °F 62.6 °F 94% 30.20 in 10.0 mi Calm Calm - N/A   Overcast
10:35 AM 66.2 °F 62.6 °F 88% 30.20 in 10.0 mi Calm Calm - N/A   Overcast
10:55 AM 66.2 °F 62.6 °F 88% 30.20 in 10.0 mi Calm Calm - N/A   Overcast
11:15 AM 66.2 °F 60.8 °F 83% 30.19 in 10.0 mi Calm Calm - N/A   Overcast
11:35 AM 66.2 °F 62.6 °F 88% 30.19 in 10.0 mi WNW 3.5 mph - N/A   Overcast
11:55 AM 68.0 °F 62.6 °F 83% 30.19 in 10.0 mi NNW 5.8 mph - N/A   Overcast
12:15 PM 66.2 °F 62.6 °F 88% 30.19 in 10.0 mi WNW 6.9 mph - N/A   Overcast
12:35 PM 68.0 °F 60.8 °F 78% 30.19 in 10.0 mi North 9.2 mph - N/A   Mostly Cloudy
12:55 PM 69.8 °F 59.0 °F 68% 30.18 in 10.0 mi North 8.1 mph - N/A   Mostly Cloudy
1:15 PM 69.8 °F 57.2 °F 64% 30.17 in 10.0 mi North 5.8 mph - N/A   Scattered Clouds
1:35 PM 69.8 °F 60.8 °F 73% 30.17 in 10.0 mi NW 9.2 mph - N/A   Clear
1:55 PM 69.8 °F 59.0 °F 68% 30.17 in 10.0 mi North 8.1 mph - N/A   Clear
2:15 PM 69.8 °F 60.8 °F 73% 30.17 in 10.0 mi NNW 11.5 mph - N/A   Clear
2:35 PM 69.8 °F 59.0 °F 68% 30.17 in 10.0 mi NNW 16.1 mph - N/A   Clear
2:55 PM 69.8 °F 59.0 °F 68% 30.16 in 10.0 mi NNW 15.0 mph - N/A   Clear
3:15 PM 69.8 °F 60.8 °F 73% 30.16 in 10.0 mi NNW 16.1 mph - N/A   Clear
3:35 PM 69.8 °F 60.8 °F 73% 30.16 in 10.0 mi NNW 15.0 mph - N/A   Clear
3:55 PM 69.8 °F 60.8 °F 73% 30.16 in 10.0 mi North 13.8 mph 18.4 mph N/A   Clear
4:15 PM 69.8 °F 60.8 °F 73% 30.16 in 10.0 mi North 16.1 mph - N/A   Clear
4:35 PM 69.8 °F 60.8 °F 73% 30.15 in 10.0 mi North 16.1 mph 19.6 mph N/A   Clear
4:55 PM 69.8 °F 59.0 °F 68% 30.15 in 10.0 mi North 16.1 mph 21.9 mph N/A   Clear
5:15 PM 68.0 °F 59.0 °F 73% 30.14 in 10.0 mi North 18.4 mph 23.0 mph N/A   Clear
5:35 PM 68.0 °F 59.0 °F 73% 30.14 in 10.0 mi North 18.4 mph 21.9 mph N/A   Clear
5:55 PM 68.0 °F 59.0 °F 73% 30.14 in 10.0 mi North 13.8 mph - N/A   Clear
6:15 PM 66.2 °F 60.8 °F 83% 30.13 in 10.0 mi North 17.3 mph - N/A   Clear
6:35 PM 66.2 °F 59.0 °F 78% 30.13 in 10.0 mi North 12.7 mph - N/A   Clear
6:55 PM 66.2 °F 59.0 °F 78% 30.12 in 10.0 mi North 13.8 mph - N/A   Clear
7:15 PM 66.2 °F 59.0 °F 78% 30.12 in 10.0 mi North 13.8 mph - N/A   Clear
7:35 PM 64.4 °F 60.8 °F 88% 30.12 in 10.0 mi North 11.5 mph - N/A   Clear
7:55 PM 64.4 °F 60.8 °F 88% 30.12 in 10.0 mi North 9.2 mph - N/A   Clear
8:15 PM 62.6 °F 60.8 °F 94% 30.12 in 10.0 mi North 8.1 mph - N/A   Clear
8:35 PM 62.6 °F 60.8 °F 94% 30.13 in 10.0 mi North 9.2 mph - N/A   Clear
8:55 PM 62.6 °F 60.8 °F 94% 30.13 in 7.0 mi North 8.1 mph - N/A   Clear
9:15 PM 62.6 °F 60.8 °F 94% 30.13 in 10.0 mi North 5.8 mph - N/A   Clear
9:35 PM 62.6 °F 59.0 °F 88% 30.13 in 10.0 mi NNE 5.8 mph - N/A   Clear
9:55 PM 62.6 °F 59.0 °F 88% 30.12 in 10.0 mi North 4.6 mph - N/A   Clear
10:15 PM 62.6 °F 59.0 °F 88% 30.12 in 10.0 mi North 4.6 mph - N/A   Clear
10:35 PM 60.8 °F 59.0 °F 94% 30.12 in 10.0 mi North 3.5 mph - N/A   Clear
10:55 PM 60.8 °F 59.0 °F 94% 30.12 in 10.0 mi North 4.6 mph - N/A   Clear
11:15 PM 60.8 °F 59.0 °F 94% 30.11 in 10.0 mi North 4.6 mph - N/A   Clear
11:35 PM 60.8 °F 59.0 °F 94% 30.11 in 10.0 mi Calm Calm - N/A   Clear
11:55 PM 60.8 °F 59.0 °F 94% 30.10 in 10.0 mi Calm Calm - N/A   Clear